Погода в Степи

Россия / Забайкальский край     51°00′15″N   115°23′40″E
темп.,
°C
ветер,
м/с
пор.,
м/с
влажн.,
%
обл.,
%
осадки,
мм/ч
давл.,
гПа
погр.,
м
21 января, пт
пт2100:00−19ююв019982 0.5 103614
03:00−21всв1110068 0.6 10379
06:00−23ссв1110078 0.1 10379
09:00−23с11100100 0.1 10389
12:00−19сз1194100 0.0 1037127
15:00−16с1289100 0.1 1035252
18:00−17ссв1198100 0.1 103510
21:00−20ссз1110094 0.2 10369
22 января, сб
сб2200:00−20ссз11100100 0.1 103610
03:00−21ссз1110082 0.1 103710
06:00−24с1110081 0.0 10379
09:00−26ссз1110087 0.0 10399
12:00−19с229765 0.0 1038100
15:00−16ссв229048 0.0 1036173
18:00−22св111005 0.0 10389
21:00−25с0010036 0.0 10409
23 января, вс
вс2300:00−26св0010058 0.0 10419
03:00−26в0010086 0.0 10419
06:00−25всв11100100 0.0 10409
09:00−23всв1199100 0.0 103914
12:00−19всв1193100 0.0 1038103
15:00−16св1189100 0.0 1036170
18:00−19ссв1198100 0.0 10369
21:00−21ссв11100100 0.0 10369
24 января, пн
пн2400:00−21ссв1199100 0.0 10369
03:00−22ссв1199100 0.0 10369
06:00−22ссв11100100 0.0 103513
09:00−22с1199100 0.0 103511
12:00−17ссв2287100 0.0 1033154
15:00−15ссв2384100 0.0 1031239
18:00−18ссв1194100 0.0 103210
21:00−19с1196100 0.0 103211
25 января, вт
вт2500:00−19с1197100 0.0 103211
03:00−20ссв119898 0.0 103112
06:00−22ссв11100100 0.0 103210
09:00−24ссв2210060 0.0 103213
12:00−19с229769 0.0 103194
15:00−16с228826 0.0 1029183
18:00−22ссв111005 0.0 10319
21:00−25юз1110040 0.0 10339